千帆星座-32 (QIANFAN-32)

导读 | 星芒AI

QIANFAN-32 是中国北斗卫星导航系统的重要组成部分,属于北斗三号系列卫星之一。该卫星由中国自主研发,主要用于提供高精度定位、导航和授时服务,增强北斗系统在全球范围内的覆盖与稳定性。QIANFAN-32 采用先进技术和高可靠设计,支持多种信号体制,可广泛应用于交通运输、农业、通信、应急救援等领域,对提升国家空间信息能力具有重要意义。

基本信息
目录编号:
61565
目录名称:
QIANFAN-32
国际标识:
2024-185P
轨道中心:
EARTH
卫星名称:
千帆星座-32
卫星全名:
千帆星座-32 (QIANFAN-32)
卫星状态:
在轨 (已飞行560 天)
发射日期:
2024-10-15 UTC
国别 :
中国 (CN)
星等 :
--
轨道信息
数据来源 国际轨道数据 AOE轨道数据
星历时间 2026-04-28T20:02:20+0800
9小时前
查看轨道信息
2026-04-29T00:00:00+0800
5小时前
查看轨道信息
半长轴 7447.537km 7447.54km
偏心率 0.0011264 0.001109
轨道倾角 88.985° 88.985°
近地点辐角 38.123° 38.124°
升交点赤经 66.906° 66.889°
平近点角 322.072° 44.203°
近地点 1061.011km 1061.143km
远地点 1077.789km 1077.663km
周期 106.605分钟 106.605分钟
每日圈数 13.507775 13.507766
详细信息
卫星平台:
32
覆盖范围:
全球
运营商:
上海垣信卫星科技有限公司
运营商所在国:
中国
使用方式:
暂无
卫星简介
千帆星座,也被称为“G60星链”计划,是中国版“星链”的重要组成部分,旨在打造一个由1.4万多颗低轨宽频多媒体卫星构成的庞大星座。千帆星座计划由上海垣信卫星科技有限公司负责实施,于2023年启动建设。该项目是我国第二个低轨卫星大星座,旨在通过构建庞大的卫星网络,为全球用户提供高质量的通信和宽带互联网服务。
2D轨道图
3D轨道图
轨道高度分析图
轨道倾角分析图
轨道综合分析图
查看轨道综合分析图